Weather History for KAWM - April, 2014

Change the Weather History Date:

Thursday, April 17, 2014

  Actual Average Record
Temperature  
Mean Temperature 56 °F -  
Max Temperature 70 °F 75 °F 93 °F (2006)
Min Temperature 42 °F 52 °F 35 °F (1986)
Degree Days  
Heating Degree Days 10    
Growing Degree Days 6 (Base 50)    
Moisture  
Dew Point 45 °F    
Average Humidity 68    
Maximum Humidity 93    
Minimum Humidity 39    
Precipitation  
Precipitation 0.00 in - - ()
Sea Level Pressure  
Sea Level Pressure 30.22 in    
Wind  
Wind Speed 3 mph (SSE)    
Max Wind Speed 13 mph    
Max Gust Speed -    
Visibility 7 miles    
Events      
Averages and records for this station are not official NWS values.
T = Trace of Precipitation, MM = Missing Value Source: NWS Daily Summary

Daily Weather History Graph

Daily Weather History Graph

Search for Another Location

Airport or City:

Trip Planner

Search our weather history database for the weather conditions in past years. The results will help you decide how hot, cold, wet, or windy it might be!

Date:

Astronomy

Apr. 17, 2014 Rise Set
Actual Time 6:26 AM CDT 7:35 PM CDT
Civil Twilight 6:00 AM CDT 8:01 PM CDT
Nautical Twilight 5:28 AM CDT 8:32 PM CDT
Astronomical Twilight 4:56 AM CDT 9:05 PM CDT
Moon 10:16 PM CDT (4/17) 8:02 AM CDT (4/17)
Length of Visible Light 14h 01m
Length of Day
13h 09m
Waning Gibbous, 93% of the Moon is Illuminated
Apr 17
Waning Gibbous
Apr 22
Last Quarter
Apr 29
New
May 6
First Quarter
May 14
Full

Hourly Weather History & Observations

Time (CDT) Temp. Windchill Dew Point Humidity Pressure Visibility Wind Dir Wind Speed Gust Speed Precip Events Conditions
12:53 AM 46.0 °F 44.8 °F 41.0 °F 83% 30.19 in 10.0 mi SSW 3.5 mph - N/A   Clear
1:53 AM 43.0 °F - 41.0 °F 93% 30.19 in 10.0 mi Calm Calm - N/A   Clear
2:53 AM 44.1 °F - 41.0 °F 89% 30.19 in 10.0 mi Calm Calm - N/A   Clear
3:53 AM 42.1 °F - 39.9 °F 92% 30.20 in 10.0 mi Calm Calm - N/A   Clear
4:53 AM 42.1 °F 40.2 °F 37.9 °F 85% 30.20 in 10.0 mi SE 3.5 mph - N/A   Clear
5:53 AM 43.0 °F 40.3 °F 37.9 °F 82% 30.21 in 10.0 mi SE 4.6 mph - N/A   Clear
6:53 AM 42.1 °F 40.2 °F 37.9 °F 85% 30.24 in 10.0 mi ESE 3.5 mph - N/A   Clear
7:53 AM 48.9 °F - 42.1 °F 77% 30.27 in 10.0 mi SSE 5.8 mph - N/A   Clear
8:53 AM 54.0 °F - 43.0 °F 66% 30.28 in 10.0 mi South 10.4 mph - N/A   Clear
9:53 AM 57.9 °F - 45.0 °F 62% 30.29 in 10.0 mi South 10.4 mph - N/A   Clear
10:53 AM 62.1 °F - 46.0 °F 56% 30.29 in 10.0 mi South 12.7 mph - N/A   Clear
12:53 PM 66.0 °F - 45.0 °F 47% 30.25 in 10.0 mi South 10.4 mph - N/A   Clear
1:53 PM 66.9 °F - 43.0 °F 42% 30.23 in 10.0 mi SSE 6.9 mph - N/A   Clear
2:53 PM 68.0 °F - 44.1 °F 42% 30.22 in 10.0 mi South 8.1 mph - N/A   Clear
3:53 PM 69.1 °F - 44.1 °F 40% 30.20 in 10.0 mi South 8.1 mph - N/A   Clear
4:53 PM 69.1 °F - 43.0 °F 39% 30.19 in 10.0 mi Calm Calm - N/A   Clear
5:53 PM 68.0 °F - 45.0 °F 43% 30.18 in 10.0 mi SW 3.5 mph - N/A   Clear
6:53 PM 66.0 °F - 44.1 °F 45% 30.19 in 10.0 mi SSW 4.6 mph - N/A   Clear
7:53 PM 62.1 °F - 46.0 °F 56% 30.20 in 10.0 mi Calm Calm - N/A   Scattered Clouds
8:53 PM 57.9 °F - 48.9 °F 72% 30.22 in 10.0 mi Calm Calm - N/A   Clear
9:53 PM 57.9 °F - 46.0 °F 65% 30.22 in 3.0 mi ENE 3.5 mph - N/A   Haze
9:55 PM 57.9 °F - 46.9 °F 67% 30.22 in 0.8 mi ENE 3.5 mph - N/A   Haze
10:02 PM 55.9 °F - 50.0 °F 80% 30.22 in 0.2 mi Calm Calm - N/A   Haze
10:06 PM 57.0 °F - 50.0 °F 77% 30.22 in 0.8 mi Calm Calm - N/A   Haze
10:11 PM 57.9 °F - 48.9 °F 72% 30.22 in 2.0 mi Calm Calm - N/A   Haze
10:30 PM 57.0 °F - 46.9 °F 69% 30.21 in 3.0 mi Calm Calm - N/A   Haze
10:33 PM 57.0 °F - 46.9 °F 69% 30.22 in 1.8 mi Calm Calm - N/A   Haze
10:41 PM 57.0 °F - 46.0 °F 67% 30.21 in 4.0 mi Calm Calm - N/A   Haze
10:48 PM 55.4 °F - 46.4 °F 72% 30.21 in 1.8 mi Calm Calm - N/A   Haze
10:53 PM 55.9 °F - 46.9 °F 72% 30.21 in 1.8 mi Calm Calm - N/A   Haze
11:01 PM 55.9 °F - 46.9 °F 72% 30.21 in 10.0 mi Calm Calm - N/A   Scattered Clouds
11:13 PM 55.0 °F - 48.0 °F 77% 30.21 in 0.8 mi Calm Calm - N/A   Haze
11:25 PM 55.9 °F - 48.9 °F 77% 30.21 in 2.0 mi Calm Calm - N/A   Haze
11:32 PM 57.9 °F - 48.0 °F 70% 30.21 in 10.0 mi Calm Calm - N/A   Overcast
11:53 PM 57.0 °F - 48.9 °F 74% 30.19 in 10.0 mi Calm Calm - N/A   Overcast